Showing default

IRIDE-MS2-HEO-9, 64585

Orbit data source: Space-Track

IRIDE-MS2-HEO-9, 64585 is an Italian payload satellite in SSO that was launched on Mon, 23 Jun 2025 UTC via an FALCON 9 launch vehicle from the Air Force Western Test Range (AFWTR). Payload-class satellites include a variety of spacecraft equipped with specific instruments for various scientific and technological missions. These include communications satellites like Starlink; space stations such as the ISS; scientific satellites like the Hubble; Earth observation satellites from companies like Planet Labs, Umbra, and HawkEye 360; GPS; miniature CubeSats for education and research; and military/defense satellites.

Loading next visibility...
Identifier
64585, 2025-135BK
Orbit
SSO
Country
Flag of ITIT
Related business
Manufacturer
ArgoTec
Mission
Operational Civil Imaging
Bus & Motor
HAWK, Unknown motor
Mass
65 kg wet, 65 kg dry
Launch date (UTC)
2025-06-23 (10 months ago)
Launch vehicle
FALCON 9
Launch site
Air Force Western Test Range (AFWTR)
Object type
Payload
Rocket body
Debris
Shape & HBR
Box + 2 Pan, 3.0 m
Radar Cross Section
0.683 m², Medium (>0.1 m² and < 1m²)

Expand to show TLE details & history
Last TLE update: 5 hours ago

TLE from 5 hours ago
0 IRIDE-MS2-HEO-9
1 64585U 25135BK  26120.20827763  .00000839  00000-0  86048-4 0  9990
2 64585  97.7697 235.3922 0003919 134.7794 225.3745 14.93055649 46743
Epoch: 2026-04-30T04:59Z
TLE epoch observation values (Epoch: 2026-04-30T04:59:55.187Z)
Latitude
0.00002°
Longitude
-57.74593°
Altitude
593.376 km
Speed
7.562 km/s
True Right ascension
15h 41m 34s
True Declination
0° 00' 00"
Sunlit
Object was in full shadow at epoch
Visualization orbit readout
Latitude
Unknown
Longitude
Unknown
Altitude
Unknown
Speed
Unknown
Apparent Right ascension
Unknown
Apparent Declination
Unknown
Sunlit
N/A
Visualization observer readout
Local Sidereal Time
17:27:48
Azimuth
Unknown
Elevation
Unknown
Doppler factor
Unknown
Orbital elements
Apogee altitude
588.161 km
Perigee altitude
582.703 km
Semi-major axis
6,963.569 km
Eccentricity
0.00039
Inclination
97.7697°
RAAN
235.3922°
Arg. of periapsis
134.7794°
True anomaly
225.34255°
Mean anomaly
225.3745°
Eccentric anomaly
225.35852°
Mean motion
3.73504 °/min
Orbital period
96.38 mins
BSTAR
0.000086048
Loading maneuver chart data...
Computing Atmospheric mass density...
Loading historical data...
Loading historical data...
Loading historical data...
Loading historical data...
Loading historical data...
Loading historical data...
Loading historical data...

Documentation

Showing up to 5 results
|